| time (UTC) | temp F | wind direction | speed MPH | gust MPH | rain 1hr in | rain 24hr in | rain mn in | humidity % | barometer mb |
| 20260906210100 | 77 | 348 | 0.0 | 3.0 | 0.00 | 0.00 | 0.00 | 50 | 1013.6 |
| 20260906204556 | 76 | 0 | 0.0 | 5.0 | 0.00 | 0.00 | 0.00 | 54 | 1013.6 |
| 20260906203101 | 76 | 82 | 0.0 | 2.0 | 0.00 | 0.00 | 0.00 | 53 | 1013.7 |
| 20260906201602 | 75 | 275 | 0.0 | 2.0 | 0.00 | 0.00 | 0.00 | 56 | 1014.0 |
| 20260906200058 | 75 | 0 | 0.0 | 4.0 | 0.00 | 0.00 | 0.00 | 55 | 1014.0 |
| 20260906194614 | 74 | 252 | 0.0 | 3.0 | 0.00 | 0.00 | 0.00 | 56 | 1014.2 |
| 20260906193108 | 73 | 251 | 0.0 | 3.0 | 0.00 | 0.00 | 0.00 | 58 | 1014.4 |
| 20260906191559 | 73 | 252 | 1.0 | 4.0 | 0.00 | 0.00 | 0.00 | 55 | 1014.6 |
| 20260906184558 | 70 | 0 | 0.0 | 2.0 | 0.00 | 0.00 | 0.00 | 59 | 1014.9 |
| 20260906183108 | 69 | 88 | 0.0 | 2.0 | 0.00 | 0.00 | 0.00 | 62 | 1015.0 |
| 20260906181632 | 68 | 0 | 0.0 | 2.0 | 0.00 | 0.00 | 0.00 | 64 | 1015.1 |
| 20260906180105 | 67 | 0 | 0.0 | 1.0 | 0.00 | 0.00 | 0.00 | 65 | 1015.3 |
| 20260906174558 | 66 | 0 | 0.0 | 1.0 | 0.00 | 0.00 | 0.00 | 70 | 1015.2 |
| 20260906173057 | 63 | 0 | 0.0 | 2.0 | 0.00 | 0.00 | 0.00 | 75 | 1015.2 |
| 20260906171607 | 62 | 0 | 0.0 | 2.0 | 0.00 | 0.00 | 0.00 | 78 | 1015.4 |
| 20260906170111 | 61 | 0 | 0.0 | 1.0 | 0.00 | 0.00 | 0.00 | 82 | 1015.4 |
| 20260906164555 | 59 | 0 | 0.0 | 0.0 | 0.00 | 0.00 | 0.00 | 87 | 1015.5 |
| 20260906163100 | 56 | 258 | 0.0 | 1.0 | 0.00 | 0.00 | 0.00 | 91 | 1015.5 |
| 20260906161556 | 54 | 0 | 0.0 | 0.0 | 0.00 | 0.00 | 0.00 | 95 | 1015.6 |
| 20260906160101 | 53 | 0 | 0.0 | 0.0 | 0.00 | 0.00 | 0.00 | 95 | 1015.5 |
| 20260906154601 | 52 | 0 | 0.0 | 0.0 | 0.00 | 0.00 | 0.00 | 95 | 1015.6 |
| 20260906153059 | 51 | 0 | 0.0 | 0.0 | 0.00 | 0.00 | 0.00 | 96 | 1015.5 |
| 20260906151554 | 49 | 0 | 0.0 | 0.0 | 0.00 | 0.00 | 0.00 | 95 | 1015.6 |
| 20260906150107 | 48 | 0 | 0.0 | 0.0 | 0.00 | 0.00 | 0.00 | 95 | 1015.5 |
| 20260906144612 | 47 | 0 | 0.0 | 0.0 | 0.00 | 0.00 | 0.00 | 95 | 1015.3 |
| 20260906143101 | 46 | 0 | 0.0 | 0.0 | 0.00 | 0.00 | 0.00 | 95 | 1015.1 |
| 20260906141557 | 46 | 0 | 0.0 | 0.0 | 0.00 | 0.00 | 0.00 | 94 | 1015.0 |
| 20260906140103 | 46 | 0 | 0.0 | 0.0 | 0.00 | 0.00 | 0.00 | 94 | 1014.9 |
| 20260906134558 | 46 | 0 | 0.0 | 0.0 | 0.00 | 0.00 | 0.00 | 95 | 1014.8 |
| 20260906133114 | 46 | 0 | 0.0 | 0.0 | 0.00 | 0.00 | 0.00 | 94 | 1014.6 |
| 20260906131556 | 46 | 0 | 0.0 | 0.0 | 0.00 | 0.00 | 0.00 | 94 | 1014.5 |
| 20260906130104 | 46 | 0 | 0.0 | 0.0 | 0.00 | 0.00 | 0.00 | 94 | 1014.4 |
| 20260906124558 | 47 | 0 | 0.0 | 0.0 | 0.00 | 0.00 | 0.00 | 94 | 1014.4 |
| 20260906123056 | 47 | 0 | 0.0 | 0.0 | 0.00 | 0.00 | 0.00 | 94 | 1014.2 |
| 20260906121558 | 47 | 0 | 0.0 | 0.0 | 0.00 | 0.00 | 0.00 | 94 | 1014.3 |
| 20260906120057 | 47 | 0 | 0.0 | 0.0 | 0.00 | 0.00 | 0.00 | 94 | 1014.3 |
| 20260906114601 | 47 | 0 | 0.0 | 0.0 | 0.00 | 0.00 | 0.00 | 94 | 1014.4 |
| 20260906113055 | 47 | 0 | 0.0 | 0.0 | 0.00 | 0.00 | 0.00 | 93 | 1014.2 |
| 20260906111555 | 48 | 0 | 0.0 | 0.0 | 0.00 | 0.00 | 0.00 | 93 | 1014.2 |
| 20260906110057 | 48 | 0 | 0.0 | 0.0 | 0.00 | 0.00 | 0.00 | 93 | 1014.2 |
| 20260906104605 | 49 | 0 | 0.0 | 1.0 | 0.00 | 0.00 | 0.00 | 93 | 1014.2 |
| 20260906103058 | 49 | 0 | 0.0 | 0.0 | 0.00 | 0.00 | 0.00 | 93 | 1014.2 |
| 20260906101559 | 50 | 0 | 0.0 | 0.0 | 0.00 | 0.00 | 0.00 | 93 | 1014.1 |
| 20260906100100 | 50 | 0 | 0.0 | 1.0 | 0.00 | 0.00 | 0.00 | 94 | 1014.2 |
| 20260906094608 | 49 | 72 | 0.0 | 0.0 | 0.00 | 0.00 | 0.00 | 92 | 1014.2 |
| 20260906093129 | 50 | 0 | 0.0 | 0.0 | 0.00 | 0.00 | 0.00 | 92 | 1014.3 |
| 20260906091603 | 50 | 0 | 0.0 | 1.0 | 0.00 | 0.00 | 0.00 | 92 | 1014.5 |
| 20260906090106 | 50 | 0 | 0.0 | 1.0 | 0.00 | 0.00 | 0.00 | 92 | 1014.4 |
| 20260906084600 | 50 | 0 | 0.0 | 0.0 | 0.00 | 0.00 | 0.00 | 92 | 1014.4 |
| 20260906083057 | 51 | 0 | 0.0 | 1.0 | 0.00 | 0.00 | 0.00 | 92 | 1014.3 |
| 20260906081556 | 51 | 0 | 0.0 | 0.0 | 0.00 | 0.00 | 0.00 | 91 | 1014.4 |
| 20260906074557 | 52 | 0 | 0.0 | 1.0 | 0.00 | 0.00 | 0.00 | 91 | 1014.4 |
| 20260906073057 | 52 | 0 | 0.0 | 1.0 | 0.00 | 0.00 | 0.00 | 91 | 1014.4 |
| 20260906071555 | 52 | 0 | 0.0 | 1.0 | 0.00 | 0.00 | 0.00 | 90 | 1014.4 |
| 20260906070059 | 53 | 0 | 0.0 | 1.0 | 0.00 | 0.00 | 0.00 | 89 | 1014.3 |
| 20260906064555 | 53 | 0 | 0.0 | 1.0 | 0.00 | 0.00 | 0.00 | 89 | 1014.5 |
| 20260906063059 | 54 | 0 | 0.0 | 1.0 | 0.00 | 0.00 | 0.00 | 88 | 1014.5 |
| 20260906061601 | 55 | 0 | 0.0 | 1.0 | 0.00 | 0.00 | 0.00 | 88 | 1014.3 |
| 20260906060100 | 55 | 0 | 0.0 | 1.0 | 0.00 | 0.00 | 0.00 | 87 | 1014.3 |
| 20260906054609 | 56 | 0 | 0.0 | 1.0 | 0.00 | 0.00 | 0.00 | 86 | 1014.3 |
| 20260906053100 | 57 | 0 | 0.0 | 1.0 | 0.00 | 0.00 | 0.00 | 85 | 1014.3 |
| 20260906051603 | 58 | 0 | 0.0 | 0.0 | 0.00 | 0.00 | 0.00 | 85 | 1014.2 |
| 20260906044602 | 59 | 69 | 0.0 | 1.0 | 0.00 | 0.00 | 0.00 | 83 | 1014.5 |
| 20260906043105 | 59 | 0 | 0.0 | 1.0 | 0.00 | 0.00 | 0.00 | 81 | 1014.3 |
| 20260906041558 | 60 | 0 | 0.0 | 1.0 | 0.00 | 0.00 | 0.00 | 79 | 1014.1 |
| 20260906040105 | 61 | 0 | 0.0 | 1.0 | 0.00 | 0.00 | 0.00 | 78 | 1014.0 |
| 20260906034551 | 62 | 0 | 0.0 | 1.0 | 0.00 | 0.00 | 0.00 | 74 | 1013.9 |
| 20260906033057 | 63 | 32 | 0.0 | 1.0 | 0.00 | 0.00 | 0.00 | 72 | 1013.8 |
| 20260906031557 | 64 | 0 | 0.0 | 1.0 | 0.00 | 0.00 | 0.00 | 62 | 1013.7 |
| 20260906024601 | 67 | 0 | 0.0 | 1.0 | 0.00 | 0.00 | 0.00 | 56 | 1013.6 |
| 20260906023056 | 68 | 0 | 0.0 | 1.0 | 0.00 | 0.00 | 0.00 | 54 | 1013.6 |
| 20260906021554 | 70 | 0 | 0.0 | 3.0 | 0.00 | 0.00 | 0.00 | 51 | 1013.6 |
| 20260906014643 | 76 | 0 | 0.0 | 2.0 | 0.00 | 0.00 | 0.00 | 44 | 1013.6 |
| 20260906013103 | 78 | 0 | 0.0 | 1.0 | 0.00 | 0.00 | 0.00 | 44 | 1013.7 |
| 20260906011604 | 77 | 0 | 0.0 | 1.0 | 0.00 | 0.00 | 0.00 | 44 | 1013.6 |
| 20260906010106 | 78 | 15 | 0.0 | 2.0 | 0.00 | 0.00 | 0.00 | 44 | 1013.6 |
| 20260906004609 | 78 | 272 | 0.0 | 2.0 | 0.00 | 0.00 | 0.00 | 44 | 1013.6 |
| 20260906003111 | 77 | 269 | 0.0 | 4.0 | 0.00 | 0.00 | 0.00 | 44 | 1013.5 |
| 20260906001555 | 75 | 230 | 1.0 | 7.0 | 0.00 | 0.00 | 0.00 | 43 | 1013.6 |
| 20260906000100 | 76 | 252 | 2.0 | 5.0 | 0.00 | 0.00 | 0.00 | 43 | 1013.6 |
| 20260905234611 | 76 | 248 | 1.0 | 4.0 | 0.00 | 0.00 | 0.00 | 44 | 1013.4 |
| 20260905233103 | 76 | 288 | 1.0 | 5.0 | 0.00 | 0.00 | 0.00 | 45 | 1013.4 |
| 20260905231552 | 77 | 225 | 1.0 | 8.0 | 0.00 | 0.00 | 0.00 | 45 | 1013.6 |
| 20260905230104 | 78 | 243 | 1.0 | 5.0 | 0.00 | 0.00 | 0.00 | 44 | 1013.7 |
| 20260905224609 | 78 | 223 | 0.0 | 3.0 | 0.00 | 0.00 | 0.00 | 40 | 1013.8 |
| 20260905223052 | 78 | 333 | 1.0 | 4.0 | 0.00 | 0.00 | 0.00 | 42 | 1014.0 |
| 20260905221615 | 77 | 126 | 1.0 | 5.0 | 0.00 | 0.00 | 0.00 | 43 | 1014.0 |
| 20260905220100 | 78 | 269 | 1.0 | 6.0 | 0.00 | 0.00 | 0.00 | 42 | 1014.0 |
| 20260905214556 | 78 | 258 | 0.0 | 5.0 | 0.00 | 0.00 | 0.00 | 42 | 1014.1 |
| 20260905213106 | 78 | 261 | 2.0 | 6.0 | 0.00 | 0.00 | 0.00 | 44 | 1014.2 |
| 20260905211601 | 78 | 115 | 0.0 | 6.0 | 0.00 | 0.00 | 0.00 | 47 | 1014.1 |